Hammond, LA

6:57 PM CDT on June 22, 2017 (GMT -0500)
Hammond Municipal

Weather History for KHDC - November, 2013

Change the Weather History Date:

Sunday, November 10, 2013

  Actual Average (KMSY) Record (KMSY)
Temperature  
Mean Temperature 65 °F -  
Max Temperature 77 °F 71 °F 84 °F (1988)
Min Temperature 51 °F 51 °F 31 °F (1991)
Growing Degree Days 15 (Base 50)    
Moisture  
Dew Point 51 °F    
Average Humidity 64    
Maximum Humidity 82    
Minimum Humidity 36    
Precipitation  
Precipitation 0.00 in - - ()
Sea Level Pressure  
Sea Level Pressure 30.24 in    
Wind  
Wind Speed 4 mph (NNE)    
Max Wind Speed 8 mph    
Max Gust Speed -    
Visibility 10 miles    
Events      
Averages and records for this station are not official NWS values.
T = Trace of Precipitation, MM = Missing Value Source: NWS Daily Summary

Daily Weather History Graph

Daily Weather History Graph

Search for Another Location

Airport or City:

Trip Planner

Search our weather history database for the weather conditions in past years. The results will help you decide how hot, cold, wet, or windy it might be!

Date:

Astronomy

Nov. 10, 2013 Rise Set
Actual Time 6:23 AM CST 5:07 PM CST
Civil Twilight 5:58 AM CST 5:32 PM CST
Nautical Twilight 5:29 AM CST 6:01 PM CST
Astronomical Twilight 5:01 AM CST 6:29 PM CST
Moon 12:46 PM CST (11/10) No Moon Set
Length of Visible Light 11h 33m
Length of Day
10h 43m
First Quarter, 56% of the Moon is Illuminated
Nov 10
First Quarter
Nov 17
Full
Nov 25
Last Quarter
Dec 2
New
Dec 9
First Quarter

Hourly Weather History & Observations

Time (CST) Temp. Dew Point Humidity Pressure Visibility Wind Dir Wind Speed Gust Speed Precip Events Conditions
12:15 AM 59.0 °F 51.8 °F 77% 30.23 in 10.0 mi North 5.8 mph - N/A   Clear
12:35 AM 59.0 °F 51.8 °F 77% 30.23 in 10.0 mi North 4.6 mph - N/A   Mostly Cloudy
12:55 AM 59.0 °F 51.8 °F 77% 30.23 in 10.0 mi NNE 4.6 mph - N/A   Overcast
1:15 AM 60.8 °F 51.8 °F 72% 30.23 in 10.0 mi NNE 3.5 mph - N/A   Overcast
1:35 AM 60.8 °F 51.8 °F 72% 30.23 in 10.0 mi NE 4.6 mph - N/A   Overcast
1:55 AM 59.0 °F 51.8 °F 77% 30.23 in 10.0 mi Calm Calm - N/A   Scattered Clouds
2:15 AM 59.0 °F 51.8 °F 77% 30.23 in 10.0 mi North 3.5 mph - N/A   Clear
2:35 AM 59.0 °F 51.8 °F 77% 30.23 in 10.0 mi NNE 3.5 mph - N/A   Clear
2:55 AM 59.0 °F 51.8 °F 77% 30.23 in 10.0 mi NNE 3.5 mph - N/A   Clear
3:15 AM 59.0 °F 51.8 °F 77% 30.23 in 10.0 mi NNE 4.6 mph - N/A   Clear
3:35 AM 59.0 °F 51.8 °F 77% 30.23 in 10.0 mi NNE 4.6 mph - N/A   Mostly Cloudy
3:55 AM 59.0 °F 51.8 °F 77% 30.24 in 10.0 mi NNE 4.6 mph - N/A   Overcast
4:15 AM 59.0 °F 51.8 °F 77% 30.24 in 10.0 mi NNE 3.5 mph - N/A   Overcast
4:35 AM 59.0 °F 51.8 °F 77% 30.24 in 10.0 mi NE 4.6 mph - N/A   Overcast
4:55 AM 59.0 °F 51.8 °F 77% 30.25 in 10.0 mi NNE 3.5 mph - N/A   Overcast
5:15 AM 59.0 °F 51.8 °F 77% 30.25 in 10.0 mi NNE 3.5 mph - N/A   Overcast
5:35 AM 59.0 °F 51.8 °F 77% 30.26 in 10.0 mi Calm Calm - N/A   Mostly Cloudy
5:55 AM 59.0 °F 51.8 °F 77% 30.26 in 10.0 mi North 3.5 mph - N/A   Scattered Clouds
6:15 AM 59.0 °F 51.8 °F 77% 30.26 in 10.0 mi Calm Calm - N/A   Mostly Cloudy
6:35 AM 59.0 °F 51.8 °F 77% 30.27 in 10.0 mi NE 3.5 mph - N/A   Overcast
6:55 AM 59.0 °F 51.8 °F 77% 30.28 in 10.0 mi Calm Calm - N/A   Overcast
7:15 AM 59.0 °F 51.8 °F 77% 30.28 in 10.0 mi Calm Calm - N/A   Scattered Clouds
7:35 AM 59.0 °F 51.8 °F 77% 30.28 in 10.0 mi NE 3.5 mph - N/A   Clear
7:55 AM 60.8 °F 51.8 °F 72% 30.29 in 10.0 mi Calm Calm - N/A   Clear
8:15 AM 62.6 °F 51.8 °F 68% 30.29 in 10.0 mi NNE 4.6 mph - N/A   Clear
8:35 AM 64.4 °F 51.8 °F 64% 30.29 in 10.0 mi NE 4.6 mph - N/A   Clear
8:55 AM 64.4 °F 51.8 °F 64% 30.29 in 10.0 mi NE 3.5 mph - N/A   Clear
9:15 AM 68.0 °F 51.8 °F 56% 30.29 in 10.0 mi NNE 3.5 mph - N/A   Clear
9:35 AM 69.8 °F 51.8 °F 53% 30.29 in 10.0 mi NNE 4.6 mph - N/A   Clear
9:55 AM 69.8 °F 51.8 °F 53% 30.29 in 10.0 mi ENE 4.6 mph - N/A   Clear
10:15 AM 71.6 °F 51.8 °F 50% 30.28 in 10.0 mi Calm Calm - N/A   Clear
10:35 AM 73.4 °F 51.8 °F 47% 30.28 in 10.0 mi Calm Calm - N/A   Clear
10:55 AM 73.4 °F 50.0 °F 44% 30.27 in 10.0 mi East 8.1 mph - N/A   Clear
11:15 AM 75.2 °F 51.8 °F 44% 30.26 in 10.0 mi ENE 3.5 mph - N/A   Clear
11:35 AM 75.2 °F 50.0 °F 41% 30.24 in 10.0 mi ENE 5.8 mph - N/A   Clear
11:55 AM 75.2 °F 50.0 °F 41% 30.23 in 10.0 mi ENE 5.8 mph - N/A   Clear
12:15 PM 75.2 °F 50.0 °F 41% 30.22 in 10.0 mi NNW 4.6 mph - N/A   Clear
12:35 PM 77.0 °F 50.0 °F 39% 30.21 in 10.0 mi East 3.5 mph - N/A   Clear
12:55 PM 77.0 °F 50.0 °F 39% 30.21 in 10.0 mi North 4.6 mph - N/A   Clear
1:15 PM 77.0 °F 50.0 °F 39% 30.21 in 10.0 mi Calm Calm - N/A   Clear
1:35 PM 77.0 °F 50.0 °F 39% 30.20 in 10.0 mi NE 5.8 mph - N/A   Mostly Cloudy
1:55 PM 77.0 °F 50.0 °F 39% 30.21 in 10.0 mi NNW 8.1 mph - N/A   Mostly Cloudy
2:15 PM 77.0 °F 50.0 °F 39% 30.20 in 10.0 mi ENE 3.5 mph - N/A   Scattered Clouds
2:35 PM 77.0 °F 48.2 °F 36% 30.20 in 10.0 mi North 5.8 mph - N/A   Clear
2:55 PM 77.0 °F 48.2 °F 36% 30.20 in 7.0 mi Calm Calm - N/A   Clear
3:15 PM 77.0 °F 48.2 °F 36% 30.20 in 10.0 mi NE 5.8 mph - N/A   Clear
3:35 PM 75.2 °F 48.2 °F 38% 30.21 in 10.0 mi North 5.8 mph - N/A   Scattered Clouds
3:55 PM 75.2 °F 48.2 °F 38% 30.21 in 10.0 mi NNE 5.8 mph - N/A   Scattered Clouds
4:15 PM 73.4 °F 50.0 °F 44% 30.22 in 10.0 mi North 4.6 mph - N/A   Mostly Cloudy
4:35 PM 69.8 °F 50.0 °F 49% 30.21 in 10.0 mi NNE 3.5 mph - N/A   Scattered Clouds
4:55 PM 69.8 °F 50.0 °F 49% 30.21 in 10.0 mi NNE 3.5 mph - N/A   Mostly Cloudy
5:15 PM 66.2 °F 51.8 °F 60% 30.22 in 10.0 mi North 4.6 mph - N/A   Scattered Clouds
5:35 PM 66.2 °F 50.0 °F 56% 30.23 in 10.0 mi NNE 3.5 mph - N/A   Clear
5:55 PM 62.6 °F 51.8 °F 68% 30.23 in 10.0 mi Calm Calm - N/A   Clear
6:15 PM 60.8 °F 51.8 °F 72% 30.23 in 10.0 mi North 3.5 mph - N/A   Clear
6:35 PM 60.8 °F 51.8 °F 72% 30.24 in 10.0 mi North 3.5 mph - N/A   Scattered Clouds
6:55 PM 60.8 °F 51.8 °F 72% 30.24 in 10.0 mi North 3.5 mph - N/A   Scattered Clouds
7:15 PM 59.0 °F 51.8 °F 77% 30.25 in 10.0 mi North 3.5 mph - N/A   Scattered Clouds
7:35 PM 59.0 °F 51.8 °F 77% 30.25 in 10.0 mi North 3.5 mph - N/A   Clear
7:55 PM 57.2 °F 51.8 °F 82% 30.25 in 10.0 mi North 4.6 mph - N/A   Clear
8:15 PM 57.2 °F 50.0 °F 77% 30.25 in 10.0 mi North 4.6 mph - N/A   Clear
8:35 PM 57.2 °F 50.0 °F 77% 30.25 in 10.0 mi North 4.6 mph - N/A   Clear
8:55 PM 55.4 °F 48.2 °F 77% 30.26 in 10.0 mi North 3.5 mph - N/A   Clear
9:15 PM 57.2 °F 48.2 °F 72% 30.26 in 10.0 mi North 4.6 mph - N/A   Clear
9:35 PM 55.4 °F 48.2 °F 77% 30.26 in 10.0 mi NNE 3.5 mph - N/A   Clear
9:55 PM 55.4 °F 48.2 °F 77% 30.26 in 10.0 mi NNE 3.5 mph - N/A   Clear
10:15 PM 53.6 °F 48.2 °F 82% 30.26 in 10.0 mi North 4.6 mph - N/A   Clear
10:35 PM 53.6 °F 48.2 °F 82% 30.25 in 10.0 mi NNE 3.5 mph - N/A   Clear
10:55 PM 53.6 °F 48.2 °F 82% 30.25 in 10.0 mi NNE 4.6 mph - N/A   Clear
11:15 PM 55.4 °F 48.2 °F 77% 30.24 in 10.0 mi Calm Calm - N/A   Clear
11:35 PM 53.6 °F 48.2 °F 82% 30.24 in 10.0 mi Calm Calm - N/A   Clear
11:55 PM 51.8 °F 46.4 °F 82% 30.24 in 10.0 mi Calm Calm - N/A   Clear